Central Park, NY

3:31 PM EST on November 18, 2017 (GMT -0500)
Central Park

Weather History for KNYC - May, 2012

Change the Weather History Date:

Monday, May 28, 2012

  Actual Average Record
Temperature  
Mean Temperature 80 °F 66 °F  
Max Temperature 89 °F 74 °F 94 °F (1959)
Min Temperature 71 °F 58 °F 43 °F (1961)
Degree Days  
Heating Degree Days 0 2  
Month to date heating degree days 78 132  
Since 1 July heating degree days 3700 4725  
Cooling Degree Days 15 3  
Month to date cooling degree days 62 47  
Year to date cooling degree days 86 59  
Growing Degree Days 30 (Base 50)    
Moisture  
Dew Point 68 °F    
Average Humidity 73    
Maximum Humidity 93    
Minimum Humidity 52    
Precipitation  
Precipitation 0.00 in 0.14 in 1.16 in (1906)
Month to date precipitation 5.16 3.73  
Year to date precipitation 14.28 19.33  
Snow  
Snow 0.00 in 0.00 in 0.00 in (2002)
Month to date snowfall 0.0 0.0  
Since 1 July snowfall 7.4 25.8  
Snow Depth 0.00 in    
Sea Level Pressure  
Sea Level Pressure 29.94 in    
Wind  
Wind Speed 3 mph (West)    
Max Wind Speed 12 mph    
Max Gust Speed 19 mph    
Visibility 9 miles    
Events      
T = Trace of Precipitation, MM = Missing Value Source: NWS Daily Summary

Daily Weather History Graph

Daily Weather History Graph

Search for Another Location

Airport or City:

Trip Planner

Search our weather history database for the weather conditions in past years. The results will help you decide how hot, cold, wet, or windy it might be!

Date:

Astronomy

May. 28, 2012 Rise Set
Actual Time 5:28 AM EDT 8:18 PM EDT
Civil Twilight 4:56 AM EDT 8:50 PM EDT
Nautical Twilight 4:15 AM EDT 9:31 PM EDT
Astronomical Twilight 3:28 AM EDT 10:18 PM EDT
Moon 12:37 PM EDT (5/28) 12:52 AM EDT (5/28)
Length of Visible Light 15h 54m
Length of Day
14h 49m
Waxing Crescent, 48% of the Moon is Illuminated
May 28
Waxing Crescent
May 28
First Quarter
Jun 4
Full
Jun 11
Last Quarter
Jun 19
New

Hourly Weather History & Observations

Time (EDT) Temp. Heat Index Dew Point Humidity Pressure Visibility Wind Dir Wind Speed Gust Speed Precip Events Conditions
12:51 AM 71.1 °F - 69.1 °F 93% 29.97 in 9.0 mi Calm Calm - N/A   Clear
1:51 AM 71.1 °F - 66.9 °F 87% 29.95 in 10.0 mi Variable 3.5 mph - N/A   Clear
2:51 AM 72.0 °F - 66.0 °F 81% 29.95 in 10.0 mi West 8.1 mph - N/A   Scattered Clouds
3:51 AM 72.0 °F - 66.0 °F 81% 29.95 in 10.0 mi Calm Calm - N/A   Clear
4:51 AM 72.0 °F - 66.0 °F 81% 29.96 in 10.0 mi Calm Calm - N/A   Clear
5:51 AM 71.1 °F - 66.0 °F 84% 29.96 in 10.0 mi Calm Calm - N/A   Clear
6:51 AM 71.1 °F - 66.9 °F 87% 29.98 in 10.0 mi West 6.9 mph - N/A   Clear
7:51 AM 72.0 °F - 68.0 °F 87% 29.99 in 9.0 mi Variable 4.6 mph - N/A   Clear
8:51 AM 73.0 °F - 68.0 °F 84% 29.99 in 8.0 mi WNW 3.5 mph - N/A   Scattered Clouds
9:51 AM 75.0 °F - 69.1 °F 82% 29.99 in 8.0 mi Calm Calm - N/A   Clear
10:51 AM 78.1 °F - 69.1 °F 74% 29.97 in 8.0 mi Variable 3.5 mph - N/A   Clear
11:51 AM 82.0 °F 85.5 °F 69.1 °F 65% 29.96 in 9.0 mi Calm Calm - N/A   Clear
12:51 PM 84.0 °F 88.4 °F 70.0 °F 63% 29.96 in 9.0 mi Variable 4.6 mph - N/A   Clear
1:51 PM 84.9 °F 89.4 °F 70.0 °F 61% 29.94 in 9.0 mi Calm Calm - N/A   Clear
2:51 PM 89.1 °F 93.7 °F 69.1 °F 52% 29.92 in 9.0 mi Calm Calm - N/A   Clear
3:51 PM 86.0 °F 90.7 °F 70.0 °F 59% 29.89 in 8.0 mi Calm Calm - N/A   Clear
4:51 PM 86.0 °F 90.1 °F 69.1 °F 57% 29.89 in 9.0 mi WSW 5.8 mph - N/A   Clear
5:51 PM 84.9 °F 88.8 °F 69.1 °F 59% 29.90 in 9.0 mi Variable 4.6 mph - N/A   Clear
6:51 PM 81.0 °F 84.1 °F 69.1 °F 67% 29.91 in 9.0 mi Variable 5.8 mph - N/A   Clear
7:51 PM 79.0 °F - 68.0 °F 69% 29.91 in 9.0 mi North - - N/A   Clear
8:51 PM 78.1 °F - 66.9 °F 68% 29.91 in 10.0 mi Calm Calm - N/A   Clear
9:51 PM 77.0 °F - 66.9 °F 71% 29.92 in 10.0 mi Variable 3.5 mph - N/A   Clear
10:51 PM 77.0 °F - 66.0 °F 69% 29.91 in 10.0 mi Variable 3.5 mph - N/A   Clear
11:51 PM 77.0 °F - 66.9 °F 71% 29.91 in 10.0 mi Calm Calm - N/A   Clear